Regional Weather Roundup
Issued by NWS San Diego, CA

Home | Current Version | Previous Version | Text Only | Print | Product List | Glossary On
Versions: 1 2 3 4 5 6 7 8 9 10 11 12 13 14 15 16 17 18 19 20 21 22 23 24 25 26 27 28 29 30 31 32 33 34 35 36 37 38 39 40 41 42 43 44 45 46 47 48 49 50
000
ASUS46 KSGX 191210
RWRSGX

SAN DIEGO HOURLY WEATHER ROUNDUP
NATIONAL WEATHER SERVICE SAN DIEGO CA
500 AM PDT SAT APR 19 2014

NOTE: "FAIR" INDICATES FEW OR NO CLOUDS BELOW 12,000 FEET WITH NO
SIGNIFICANT WEATHER AND/OR OBSTRUCTIONS TO VISIBILITY.

CAZ042-043-060-061-PZZ750-775-191300-

GREATER SAN DIEGO AREA

CITY           SKY/WX    TMP DP  RH WIND       PRES   REMARKS
LINDBERGH FLD  CLOUDY    64  51  62 CALM      29.94F
NATIONAL CITY    N/A     63  54  73 CALM      29.93F
CHULA VISTA      N/A     62  55  78 N1        29.86F
IMPERIAL BEACH CLOUDY    59  55  87 CALM      29.93F
BROWN FIELD    CLOUDY    61  52  72 CALM      29.92F
MIRAMAR MCAS   PTCLDY    58  52  80 NW6       29.95S
MONTGOMERY FLD PTCLDY    60  54  80 CALM      29.93F

$$

NORTH SAN DIEGO COUNTY

CITY           SKY/WX    TMP DP  RH WIND       PRES   REMARKS
RED BEACH      FAIR      54  49  83 NE7       29.92F
OCEANSIDE AP   CLEAR     50  47  89 CALM      29.92F
VISTA            N/A     52  49  89 CALM      29.91F
CARLSBAD       CLEAR     57  51  80 CALM      29.92S
DEL MAR          N/A     57  55  91 CALM      29.94F
LA JOLLA SCRIP   N/A     58  56  92 CALM      29.90F
FALLBROOK        N/A     54  54 100 CALM      29.94F
ESCONDIDO        N/A     57  51  79 W2        29.94F
SAN MARCOS       N/A     55  50  83 CALM      29.91F
POWAY            N/A     58  52  80 CALM      29.94F
R. PENASQUITOS   N/A     58  53  85 CALM      29.93F

$$

EAST SAN DIEGO COUNTY

CITY           SKY/WX    TMP DP  RH WIND       PRES   REMARKS
RAMONA         PTCLDY    55  50  83 CALM      29.93F
SANTEE LAKES     N/A     61  54  78 CALM      29.94F
GILLESPIE FLD  FAIR      61  52  72 CALM      29.94F
LA MESA          N/A     60  55  82 CALM      29.87S
JAMUL            N/A     54  50  85 CALM      29.91F
DESCANSO N       N/A     47  41  80 CALM      29.81R
MT. LAGUNA OBS   N/A     49  32  53 SE1       29.62
CAMPO            N/A     45  42  89 CALM      29.91S

$$

ORANGE COUNTY AND THE LOS ANGELES BASIN

CITY           SKY/WX    TMP DP  RH WIND       PRES   REMARKS
JOHN WAYNE AP  CLEAR     60  53  77 CALM      29.94S
LAGUNA BEACH     N/A     53  50  89 CALM      29.91S
LAKE FOREST FR   N/A     53  47  81 CALM      29.83F
SANTA ANA        N/A     56  52  87 CALM      29.90R
LOS ALAMITOS   FAIR      56  54  95 NW2       29.94S
FULLERTON      CLEAR     58  54  86 CALM      29.94R
LONG BEACH     CLEAR     58  52  80 CALM      29.94S
L.A. AP        PTCLDY    58  54  86 W6        29.96R
L.A. DOWNTOWN  CLEAR     59  53  80 CALM      29.95R

$$

THE INLAND EMPIRE

CITY           SKY/WX    TMP DP  RH WIND       PRES   REMARKS
CORONA         CLEAR     47  46  96 CALM      29.94F
CHINO          CLEAR     53  50  89 CALM      29.95F
ONTARIO        PTCLDY    56  50  80 CALM      29.93F
RIVERSIDE AP   CLEAR     53  49  86 E3        29.94F
RIV CYN CREST    N/A     54  54 100 S1        29.90F
MORENO VALLEY    N/A     51  51  97 CALM      28.06S
MARCH ARB      CLEAR     49  46  92 CALM      29.94F
HORSETHIEF CYN   N/A     51  46  81 S3        29.94F
PERRIS           N/A     53  51  93 CALM        N/A
MENIFEE          N/A     53  51  94 CALM      30.00F
HEMET EAST       N/A     50  46  84 CALM      29.94F
FRENCH VALLEY  NOT AVBL
TEMECULA         N/A     53  51  94 W1        29.92F

$$

SAN BERNARDINO AND RIVERSIDE COUNTY MOUNTAINS

CITY           SKY/WX    TMP DP  RH WIND       PRES   REMARKS
BIG BEAR AP    CLEAR     32  30  93 CALM      30.08S
BIG BEAR SHEA    N/A     31  27  83 CALM      30.03R
ANGELUS OAKS     N/A     42  32  68 MISG      29.85S
PINE COVE        N/A     46  36  68 CALM      29.88S

$$

SOUTHERN DESERT INCLUDING THE COACHELLA VALLEY

CITY           SKY/WX    TMP DP  RH WIND       PRES   REMARKS
PALM SPRINGS   CLEAR     65  51  60 CALM      29.89S
THOUSAND PALMS   N/A     66  50  56 N7        29.85R
PALM DESERT      N/A     65  53  65 CALM      30.65F
THERMAL        PTCLDY    67  51  56 NW9       29.83S
BLYTHE         CLOUDY    70  47  43 N5        29.86S
IMPERIAL AP    MOCLDY    61  51  70 CALM      29.83R
EL CENTRO NAS  MOCLDY    63  50  62 CALM      29.83S
YUMA AZ        CLEAR     68  46  45 NE8       29.83R

$$

UPPER DESERT

CITY           SKY/WX    TMP DP  RH WIND       PRES   REMARKS
VICTORVILLE AP   N/A     50  43  76 S6        29.94F
HESPERIA         N/A     49  44  81 CALM      30.00R
GRAY BUTTE AP  NOT AVBL
PALMDALE       CLEAR     54  38  54 SW6       29.94R
LANCASTER      CLEAR     54  37  52 W8        29.94R
EDWARDS AFB    CLEAR     56  41  57 SW8       29.91S
DAGGETT        CLEAR     60  43  53 W7        29.92S
29 PALMS N     PTCLDY    63  42  46 CALM      29.98S
NEEDLES        CLOUDY    71  46  40 CALM      29.89S

$$

REGIONAL REPORTS

CITY           SKY/WX    TMP DP  RH WIND       PRES   REMARKS
SANTA BARBARA  CLEAR     54  49  83 NE3       29.94S
SANDBERG       CLEAR     53  42  66 NW12      30.01R
MT. WILSON       N/A     50  27  40 SE3         N/A
LAS VEGAS NV   PTCLDY    66  39  37 S10       29.89R
PHOENIX AZ     PTCLDY    67  45  45 E3        29.86S
TIJUANA        MOCLDY    61  50  67 N6        29.95S

$$

OFFSHORE ISLANDS

CITY           SKY/WX    TMP DP  RH WIND       PRES   REMARKS
CATALINA ARPT  CLEAR     53  49  86 SW6       29.96S
SAN NICOLAS IS PTCLDY   N/A N/A N/A NW13      29.95F

$$

MARINE AND OFFSHORE BUOY REPORTS

STATION/POSITION SKY/WX   TEMP    WIND        PRES    SWELL
                          AIR SEA DIR/SP/G            HT/PER/DIR
                          (F)     (DEG/KT/KT) (MB)    (FT/S/D)
S CLEMENTE BASIN           60 63   40/  2/  2 1013.4R   5/280/12
SAN NICOLAS IS.               59                N/A     3/290/11
SO. S. ROSA ISLA           54 58  310/ 17/ 19 1014.7R   5/10
W. S. BARBARA CH           53 55  330/ 19/ 23 1014.1R   5/290/11
S. MONICA BASIN            58 60  320/  8/ 10 1013.8S   3/260/11
S PEDRO CHANNEL               61                N/A     2/260/11
DANA POINT                    60                N/A     2/200/12
CMP PENDLETON NS              62                N/A     2/220/12
OCEANSIDE OFFSHR              61                N/A     2/200/11
TORREY PINES OTR              62                N/A     2/260/11
LA JOLLA 1                 60 62   30/  3/  4 1013.4S
MISSION BAY BUOY              61                N/A     2/250/12
SAN DIEGO BAY                 65              1013.5S
POINT LOMA SOUTH              62                N/A     2/260/11

$$




USA.gov is the U.S. government's official web portal to all federal, state and local government web resources and services.